• In Russia
  • List of Countries
  • For 7 days
  • Water Temperature
  • Weather Map
  • Weather Widgets
  • user-avatar
    Login

    Hourly Weather Chakhansur

    Today, 29 January, Wednesday

    Time Temperature Precipitation Wind Pressure Humidity
    00:00 +4°C° 0 mm 6 mps 721 mmHg 54%
    01:00 +4°C° 0 mm 6 mps 721 mmHg 54%
    02:00 +3°C° 0 mm 5 mps 721 mmHg 56%
    03:00 +3°C° 0 mm 5 mps 721 mmHg 57%
    04:00 +3°C° 0 mm 5 mps 720 mmHg 58%
    05:00 +3°C° 0 mm 4 mps 721 mmHg 60%
    06:00 +3°C° 0 mm 4 mps 721 mmHg 62%
    07:00 +1°C° 0 mm 4 mps 722 mmHg 64%
    08:00 +4°C° 0 mm 4 mps 722 mmHg 59%
    09:00 +5°C° 0 mm 4 mps 723 mmHg 54%
    10:00 +6°C° 0 mm 4 mps 723 mmHg 47%
    11:00 +8°C° 0 mm 3 mps 723 mmHg 43%
    12:00 +10°C° 0 mm 3 mps 722 mmHg 38%
    13:00 +12°C° 0 mm 2 mps 722 mmHg 33%
    14:00 +12°C° 0 mm 2 mps 721 mmHg 32%
    15:00 +12°C° 0 mm 2 mps 721 mmHg 31%
    16:00 +13°C° 0 mm 1 mps 721 mmHg 30%
    17:00 +12°C° 0 mm 1 mps 722 mmHg 34%
    18:00 +11°C° 0 mm 1 mps 722 mmHg 39%
    19:00 +10°C° 0 mm 1 mps 723 mmHg 43%
    20:00 +10°C° 0 mm 1 mps 722 mmHg 45%
    21:00 +8°C° 0 mm 2 mps 722 mmHg 46%
    22:00 +8°C° 0 mm 2 mps 722 mmHg 48%
    23:00 +8°C° 0 mm 2 mps 722 mmHg 50%

    Tomorrow, 30 January, Thursday

    Time Temperature Precipitation Wind Pressure Humidity
    00:00 +7°C° 0 mm 2 mps 722 mmHg 51%
    01:00 +7°C° 0 mm 2 mps 722 mmHg 53%
    02:00 +7°C° 0 mm 2 mps 722 mmHg 53%
    03:00 +7°C° 0 mm 3 mps 721 mmHg 54%
    04:00 +5°C° 0 mm 3 mps 721 mmHg 54%
    05:00 +5°C° 0 mm 3 mps 721 mmHg 55%
    06:00 +5°C° 0 mm 3 mps 722 mmHg 57%
    07:00 +5°C° 0 mm 3 mps 722 mmHg 59%
    08:00 +6°C° 0 mm 4 mps 722 mmHg 54%
    09:00 +7°C° 0 mm 4 mps 722 mmHg 50%
    10:00 +10°C° 0 mm 4 mps 722 mmHg 46%
    11:00 +11°C° 0 mm 3 mps 721 mmHg 40%
    12:00 +12°C° 0 mm 3 mps 721 mmHg 34%
    13:00 +14°C° 0 mm 2 mps 720 mmHg 28%
    14:00 +15°C° 0 mm 2 mps 720 mmHg 27%
    15:00 +15°C° 0 mm 1 mps 720 mmHg 26%
    16:00 +15°C° 0 mm 1 mps 719 mmHg 24%
    17:00 +14°C° 0 mm 1 mps 719 mmHg 29%
    18:00 +13°C° 0 mm 2 mps 719 mmHg 34%
    19:00 +12°C° 0 mm 2 mps 719 mmHg 39%
    20:00 +10°C° 0 mm 2 mps 720 mmHg 41%
    21:00 +10°C° 0 mm 2 mps 720 mmHg 43%
    22:00 +9°C° 0 mm 2 mps 720 mmHg 45%
    23:00 +9°C° 0 mm 2 mps 720 mmHg 45%

    Day after tomorrow, 31 January, Friday

    Time Temperature Precipitation Wind Pressure Humidity
    00:00 +8°C° 0 mm 2 mps 719 mmHg 46%
    01:00 +8°C° 0 mm 2 mps 719 mmHg 46%
    02:00 +9°C° 0 mm 1 mps 719 mmHg 47%
    03:00 +8°C° 0 mm 1 mps 719 mmHg 48%
    04:00 +8°C° 0 mm 1 mps 719 mmHg 49%
    05:00 +8°C° 0 mm 1 mps 719 mmHg 49%
    06:00 +7°C° 0 mm 1 mps 720 mmHg 50%
    07:00 +6°C° 0 mm 0 mps 720 mmHg 50%
    08:00 +8°C° 0 mm 0 mps 720 mmHg 44%
    09:00 +10°C° 0 mm 0 mps 721 mmHg 39%
    10:00 +11°C° 0 mm 0 mps 721 mmHg 33%
    11:00 +12°C° 0 mm 0 mps 721 mmHg 32%
    12:00 +13°C° 0 mm 0 mps 720 mmHg 31%
    13:00 +14°C° 0 mm 0 mps 720 mmHg 30%
    14:00 +14°C° 0 mm 0 mps 720 mmHg 30%
    15:00 +14°C° 0 mm 0 mps 719 mmHg 29%
    16:00 +16°C° 0 mm 1 mps 719 mmHg 29%
    17:00 +15°C° 0 mm 1 mps 719 mmHg 32%
    18:00 +14°C° 0 mm 2 mps 719 mmHg 35%
    19:00 +12°C° 0 mm 3 mps 720 mmHg 39%
    20:00 +12°C° 0 mm 3 mps 720 mmHg 40%
    21:00 +11°C° 0 mm 3 mps 720 mmHg 41%
    22:00 +12°C° 0 mm 2 mps 720 mmHg 42%
    23:00 +10°C° 0 mm 2 mps 720 mmHg 42%

    1 February, Saturday

    Time Temperature Precipitation Wind Pressure Humidity
    00:00 +10°C° 0 mm 3 mps 720 mmHg 43%
    01:00 +10°C° 0 mm 3 mps 720 mmHg 43%
    02:00 +9°C° 0 mm 3 mps 720 mmHg 44%
    03:00 +9°C° 0 mm 3 mps 719 mmHg 46%
    04:00 +8°C° 0 mm 3 mps 719 mmHg 47%
    05:00 +8°C° 0 mm 3 mps 720 mmHg 47%
    06:00 +8°C° 0 mm 3 mps 720 mmHg 48%
    07:00 +8°C° 0 mm 3 mps 721 mmHg 48%
    08:00 +8°C° 0 mm 4 mps 721 mmHg 44%
    09:00 +10°C° 0 mm 5 mps 721 mmHg 40%
    10:00 +12°C° 0 mm 5 mps 722 mmHg 35%
    11:00 +14°C° 0 mm 5 mps 721 mmHg 32%
    12:00 +15°C° 0 mm 5 mps 721 mmHg 29%
    13:00 +17°C° 0 mm 4 mps 720 mmHg 25%
    14:00 +18°C° 0 mm 4 mps 720 mmHg 25%
    15:00 +18°C° 0 mm 4 mps 720 mmHg 25%
    16:00 +18°C° 0 mm 3 mps 719 mmHg 25%
    17:00 +17°C° 0 mm 3 mps 719 mmHg 28%
    18:00 +14°C° 0 mm 3 mps 719 mmHg 31%
    19:00 +13°C° 0 mm 3 mps 719 mmHg 35%
    20:00 +13°C° 0 mm 4 mps 719 mmHg 36%
    21:00 +12°C° 0 mm 5 mps 719 mmHg 37%
    22:00 +10°C° 0 mm 5 mps 719 mmHg 38%
    23:00 +10°C° 0 mm 5 mps 719 mmHg 39%

    2 February, Sunday

    Time Temperature Precipitation Wind Pressure Humidity
    00:00 +9°C° 0 mm 5 mps 719 mmHg 40%
    01:00 +9°C° 0 mm 5 mps 719 mmHg 42%
    02:00 +9°C° 0 mm 5 mps 719 mmHg 43%
    03:00 +8°C° 0 mm 5 mps 719 mmHg 44%
    04:00 +8°C° 0 mm 4 mps 718 mmHg 46%
    05:00 +8°C° 0 mm 4 mps 719 mmHg 47%
    06:00 +7°C° 0 mm 4 mps 719 mmHg 48%
    07:00 +7°C° 0 mm 4 mps 719 mmHg 50%
    08:00 +9°C° 0 mm 5 mps 719 mmHg 47%
    09:00 +12°C° 0 mm 5 mps 720 mmHg 44%
    10:00 +14°C° 0 mm 5 mps 720 mmHg 42%
    11:00 +15°C° 0 mm 5 mps 720 mmHg 39%
    12:00 +17°C° 0 mm 5 mps 719 mmHg 37%
    13:00 +19°C° 0 mm 5 mps 719 mmHg 34%
    14:00 +19°C° 0 mm 5 mps 718 mmHg 34%
    15:00 +19°C° 0 mm 4 mps 718 mmHg 33%
    16:00 +20°C° 0 mm 3 mps 718 mmHg 32%
    17:00 +18°C° 0 mm 3 mps 718 mmHg 35%
    18:00 +17°C° 0 mm 2 mps 718 mmHg 39%
    19:00 +16°C° 0 mm 2 mps 718 mmHg 42%
    20:00 +16°C° 0 mm 2 mps 718 mmHg 43%
    21:00 +14°C° 0 mm 3 mps 718 mmHg 44%
    22:00 +14°C° 0 mm 3 mps 718 mmHg 46%
    23:00 +13°C° 0 mm 3 mps 718 mmHg 48%

    3 February, Monday

    Time Temperature Precipitation Wind Pressure Humidity
    00:00 +12°C° 0 mm 3 mps 718 mmHg 49%
    01:00 +12°C° 0 mm 3 mps 718 mmHg 51%
    02:00 +11°C° 0 mm 3 mps 718 mmHg 53%
    03:00 +10°C° 0 mm 3 mps 718 mmHg 55%
    04:00 +10°C° 0 mm 3 mps 718 mmHg 56%
    05:00 +10°C° 0 mm 4 mps 718 mmHg 57%
    06:00 +8°C° 0 mm 5 mps 719 mmHg 58%
    07:00 +8°C° 0 mm 5 mps 719 mmHg 59%
    08:00 +9°C° 0 mm 6 mps 720 mmHg 56%
    09:00 +10°C° 0 mm 7 mps 720 mmHg 52%
    10:00 +11°C° 0 mm 7 mps 721 mmHg 49%
    11:00 +12°C° 0 mm 7 mps 720 mmHg 46%
    12:00 +14°C° 0 mm 6 mps 720 mmHg 44%
    13:00 +15°C° 0 mm 5 mps 720 mmHg 42%
    14:00 +15°C° 0 mm 5 mps 720 mmHg 43%
    15:00 +15°C° 0 mm 5 mps 720 mmHg 45%
    16:00 +15°C° 0 mm 5 mps 720 mmHg 46%
    17:00 +14°C° 0 mm 4 mps 720 mmHg 50%
    18:00 +13°C° 0 mm 3 mps 720 mmHg 53%
    19:00 +13°C° 0 mm 2 mps 720 mmHg 56%
    20:00 +13°C° 0 mm 2 mps 721 mmHg 56%
    21:00 +11°C° 0 mm 3 mps 721 mmHg 55%
    22:00 +11°C° 0 mm 3 mps 721 mmHg 55%
    23:00 +10°C° 0 mm 3 mps 721 mmHg 56%
    Show more